Location: Cosy Dell
(34.2789°N, 117.4537°W)
Time: 21:02:03
(UTC+00:00)

H-2A ROCKET BODY - Pass Details

Date: 14 July 2020
Orbit: 241 x 15319 km, 28.6° (Epoch: 13 August)

Event Time Altitude Azimuth Distance (km) Brightness Sun altitude
Rises 03:47:55 0° 260° (W) 2,326 5.3 -8.8°
Reaches altitude 10° 03:49:18 10° 250° (WSW) 1,763 4.4 -9.1°
Maximum altitude 03:52:45 40° 179° (S) 1,350 3.0 -9.7°
Enters shadow 04:02:51 12° 116° (ESE) 5,254 5.6 -11.4°
